Regional Weather Roundup
Issued by NWS

Home | Current Version | Previous Version | Text Only | Print | Product List | Glossary Off
Versions: 1 2 3 4 5 6 7 8 9 10 11 12 13 14 15 16 17 18 19 20 21 22 23 24 25 26 27 28 29 30 31 32 33 34 35 36 37 38 39 40 41 42 43 44 45 46 47 48 49 50

725
ASUS44 KLIX 271201
RWRLA
LOUISIANA WEATHER ROUNDUP
NATIONAL WEATHER SERVICE NEW ORLEANS LA
600 AM CST THU NOV 27 2014

NOTE: "FAIR" INDICATES FEW OR NO CLOUDS BELOW 12,000 FEET WITH NO
      SIGNIFICANT WEATHER AND/OR OBSTRUCTIONS TO VISIBILITY.
      SKY/WX - SKY CONDITION AND SIGNIFICANT WEATHER.
      TMP - AIR TEMPERATURE.    DP   - DEWPOINT TEMPERATURE.
      RH  - RELATIVE HUMIDITY.  PRES - PRESSURE.
      HX  - HEAT INDEX.         WCI  - WIND CHILL INDEX.

*  THESE STATIONS ARE NOT NWS OR FAA STATIONS AND ARE NOT UNDER
   NWS QUALITY CONTROL.

LAZ040-048-061>063-065-066-069-271300-
SOUTHEAST LOUISIANA

CITY           SKY/WX    TMP DP  RH WIND       PRES   REMARKS
N.O. AUDUBON     N/A     53  45  73 MISG        N/A
6HR MIN TEMP:  52; 6HR MAX TEMP:  56;

N.O. INTL ARPT CLEAR     51  41  68 N8        30.37R
6HR MIN TEMP:  48; 6HR MAX TEMP:  57;

N.O. LAKEFRONT CLEAR     55  44  66 NW12      30.38R
6HR MIN TEMP:  54; 6HR MAX TEMP:  60;

N.O. DOWNTOWN* FAIR      54  39  58 N5        30.37R
6HR MIN TEMP:  54; 6HR MAX TEMP:  57;

SLIDELL        CLEAR     42  37  82 CALM      30.36R
6HR MIN TEMP:  41; 6HR MAX TEMP:  56;

BATON ROUGE    CLEAR     41  37  86 NW5       30.40R
6HR MIN TEMP:  40; 6HR MAX TEMP:  52;

BOOTHVILLE     CLEAR     54  48  80 NW8       30.36R
6HR MIN TEMP:  54; 6HR MAX TEMP:  61;

BELLE CHASSE   CLEAR     51  39  63 N5        30.37R
6HR MIN TEMP:  48; 6HR MAX TEMP:  56;

BOGALUSA*        N/A     37  34  89 CALM      30.38R
6HR MIN TEMP:  37; 6HR MAX TEMP:  50;

NEW ROADS*     NOT AVBL
GONZALES*      NOT AVBL
HAMMOND*       NOT AVBL
HOUMA*         CLEAR     46  43  87 N9        30.38R
PORT FOURCHON* SUNNY     54  46  76 N7        30.41R

$$

LAZ041-044-053-054-271300-
SOUTHWEST LOUISIANA

CITY           SKY/WX    TMP DP  RH WIND       PRES   REMARKS
LAKE CHARLES   CLEAR     48  37  65 N8        30.41R
6HR MIN TEMP:  42; 6HR MAX TEMP:  54;

LAFAYETTE      CLEAR     48  37  65 N10       30.41R
6HR MIN TEMP:  45; 6HR MAX TEMP:  53;

PATTERSON      CLEAR     48  41  76 N5        30.41R
6HR MIN TEMP:  46; 6HR MAX TEMP:  55;

SALT POINT       N/A     54  43  66 N5        30.38R
6HR MIN TEMP:  54; 6HR MAX TEMP:  65;

NEW IBERIA     CLEAR     46  40  79 NW5       30.41R
6HR MIN TEMP:  42; 6HR MAX TEMP:  56;

CHENAULT AIRPK NOT AVBL

$$

LAZ027-028-271300-
CENTRAL LOUISIANA

CITY           SKY/WX    TMP DP  RH WIND       PRES   REMARKS
FORT POLK      CLEAR     44  33  65 N8        30.42R
6HR MIN TEMP:  40; 6HR MAX TEMP:  51;

ALEXANDRIA INT CLEAR     40  33  76 NW6       30.42R
6HR MIN TEMP:  40; 6HR MAX TEMP:  48;

ALEXANDRIA     CLEAR     46  31  55 N8        30.42R
6HR MIN TEMP:  41; 6HR MAX TEMP:  50;


$$

LAZ001-002-271300-
NORTHWEST LOUISIANA

CITY           SKY/WX    TMP DP  RH WIND       PRES   REMARKS
SHREVEPORT     CLEAR     43  30  60 N9        30.45R
6HR MIN TEMP:  43; 6HR MAX TEMP:  48;

BARKSDALE AFB  CLEAR     39  29  66 N8        30.47R WCI  34
6HR MIN TEMP:  38; 6HR MAX TEMP:  46;

DTN SHREVEPORT CLEAR     41  28  60 NW6       30.47R
6HR MIN TEMP:  40; 6HR MAX TEMP:  48;


$$

LAZ014-016-271300-
NORTHEAST LOUISIANA

CITY           SKY/WX    TMP DP  RH WIND       PRES   REMARKS
MONROE         CLEAR     43  30  60 N12       30.45R
6HR MIN TEMP:  42; 6HR MAX TEMP:  48;

TALLULAH       CLEAR     39  32  76 NW6       30.43R WCI  35
6HR MIN TEMP:  34; 6HR MAX TEMP:  44;


$$




USA.gov is the U.S. government's official web portal to all federal, state and local government web resources and services.